Lid_Strength_Index
3 3 3 3 3 3 3 2 2 2 2 2 2 2 2 2 2 3 6 3 2 -2 -0 3 3 4 4 5 5 5 8 9 9 9 8 6 7 6 5 6 6 5 5 4 4
3 3 3 3 3 3 3 3 2 2 2 2 2 2 2 2 4 5 1 -0 -1 -1 4 6 5 4 5 6 5 6 8 9 7 8 8 7 7 7 8 7 7 6 5 4 4
3 3 3 3 3 3 3 3 2 2 2 2 2 1 2 2 6 6 -1 -0 -0 1 4 5 5 6 7 6 7 7 8 8 8 8 8 8 8 7 8 8 7 8 6 5 4
3 4 3 3 3 3 3 3 3 2 2 2 2 1 1 3 10 5 -2 -1 -1 3 5 6 6 7 8 9 8 9 9 9 8 8 8 8 7 8 8 8 6 6 6 5 5
3 4 4 4 3 3 3 3 3 3 3 2 2 1 3 6 7 4 -1 0 3 5 6 7 7 8 9 9 8 9 9 8 8 8 8 8 8 8 8 7 6 6 6 6 5
3 3 4 4 3 3 3 3 3 3 3 2 2 1 5 9 4 4 3 4 4 5 6 6 7 7 8 9 9 9 9 8 8 8 8 9 8 8 7 6 6 6 6 6 6
3 3 4 4 4 3 3 3 3 3 3 2 1 2 6 7 4 4 4 5 4 5 6 6 6 7 8 9 8 9 10 9 9 8 8 8 8 7 6 5 6 6 5 5 6
3 3 4 4 4 3 3 3 3 3 3 2 1 2 7 4 3 4 4 5 4 4 5 5 5 7 8 8 9 10 10 11 9 8 8 8 10 6 5 5 6 5 5 5 4
3 3 4 4 4 4 3 3 2 2 2 1 2 4 8 4 6 5 4 6 5 5 5 6 6 8 8 10 10 10 12 11 10 8 8 8 9 6 5 5 6 5 5 5 4
3 3 4 4 4 4 4 4 1 2 2 2 4 7 6 8 6 5 4 5 6 6 7 7 7 9 9 9 13 12 12 11 10 8 7 8 8 6 5 6 6 5 4 4 3
3 3 3 4 4 4 3 3 5 6 5 7 7 8 7 5 5 5 5 6 6 7 9 8 10 10 11 10 10 11 11 11 9 7 8 8 8 7 6 6 5 5 4 4 4
3 3 3 4 4 4 3 5 6 6 8 6 6 6 6 5 8 6 4 7 8 10 9 9 11 10 10 10 11 11 11 10 9 8 8 8 8 7 7 6 5 5 4 4 3
3 3 3 4 4 4 4 5 3 4 7 7 6 6 7 6 8 7 6 7 9 10 10 11 10 9 10 11 11 10 10 10 10 8 7 9 9 9 7 5 5 4 4 3 4
3 3 3 5 5 3 5 4 3 2 8 8 8 7 6 7 8 6 6 7 9 11 10 10 9 10 11 11 11 12 9 9 10 10 11 8 13 8 7 6 6 5 4 4 3
3 3 3 5 3 5 4 3 2 2 13 8 8 6 6 8 7 7 6 7 10 10 10 11 11 11 11 11 10 10 9 9 9 10 10 10 12 9 7 8 7 6 5 4 4
3 3 4 3 2 3 2 2 2 9 13 11 9 9 9 8 8 8 8 6 7 10 9 10 8 10 10 10 9 9 8 8 9 10 14 10 12 10 8 9 8 6 5 5 4
3 4 5 3 5 2 1 3 9 12 9 11 11 10 10 10 9 9 10 10 10 12 12 11 10 9 9 10 8 8 9 15 15 14 15 10 12 10 7 8 7 7 6 5 4
4 5 4 3 2 3 3 6 12 10 10 9 10 10 11 10 10 10 11 11 10 11 11 13 13 10 9 10 10 10 10 14 20 17 14 10 13 10 7 6 6 6 5 5 5
4 1 3 1 2 2 6 11 10 9 8 10 10 11 11 10 11 11 11 11 10 10 12 12 13 9 9 9 9 10 11 9 14 12 15 12 10 8 7 7 6 6 7 7 6
1 2 2 3 1 4 8 11 9 8 8 9 11 10 12 11 11 11 11 10 10 9 8 10 13 10 9 8 8 9 8 14 14 19 19 12 12 11 10 8 7 7 7 7 7
1 4 1 1 3 5 10 9 8 8 8 9 9 10 10 11 10 12 12 10 9 9 8 9 11 11 10 10 10 10 11 11 11 13 17 18 12 8 8 8 8 7 7 8 8
2 7 1 0 7 7 8 8 9 8 8 8 8 9 9 10 10 11 12 11 8 8 11 9 10 13 11 8 8 8 9 10 15 17 14 15 14 7 7 7 7 7 7 8 8
5 4 -0 2 8 8 7 8 8 9 8 9 9 8 8 9 11 10 11 9 8 9 10 8 11 15 12 11 8 10 9 10 11 12 15 17 13 7 6 7 6 7 8 8 8
5 7 4 3 4 7 8 8 8 7 7 7 8 7 8 9 8 10 11 9 8 8 8 8 10 12 14 12 9 11 10 10 11 16 14 13 11 8 7 7 7 7 7 8 9
4 6 5 8 7 7 7 8 9 8 6 6 8 8 8 9 9 10 9 9 9 8 8 8 12 10 10 9 9 10 10 10 11 11 15 12 11 9 8 7 7 7 7 9 10
6 7 5 7 6 8 8 8 9 8 6 7 8 7 7 9 8 9 9 9 10 9 9 7 11 10 11 10 10 11 9 9 9 9 10 10 11 7 6 6 7 8 8 9 10
1 2 6 7 7 9 9 9 8 7 7 6 6 7 8 7 6 6 6 7 8 9 9 9 10 12 14 10 10 14 10 9 9 8 9 12 8 6 7 8 8 9 9 9 10